TimeMST,TemperatureF,Dew PointF,Humidity,Sea Level PressureIn,VisibilityMPH,Wind Direction,Wind SpeedMPH,Gust SpeedMPH,PrecipitationIn,Events,Conditions,WindDirDegrees,DateUTC
12:56 AM,45.0,32.0,60,29.60,10.0,ESE,15.0,25.3,N/A,,Clear,110,2012-12-05 07:56:00
1:56 AM,41.0,30.0,65,29.58,10.0,SSE,9.2,-,N/A,,Clear,150,2012-12-05 08:56:00
2:56 AM,45.0,34.0,65,29.56,10.0,SW,23.0,31.1,N/A,,Clear,230,2012-12-05 09:56:00
3:56 AM,46.0,35.1,66,29.54,10.0,WSW,28.8,38.0,N/A,,Clear,250,2012-12-05 10:56:00
4:56 AM,43.0,34.0,71,29.55,10.0,West,23.0,27.6,N/A,,Clear,260,2012-12-05 11:56:00
5:56 AM,44.1,33.1,65,29.53,10.0,WSW,21.9,-,N/A,,Partly Cloudy,250,2012-12-05 12:56:00
7:56 AM,45.0,30.9,58,29.52,10.0,WSW,42.6,51.8,N/A,,Clear,240,2012-12-05 14:56:00
8:56 AM,45.0,28.0,52,29.56,10.0,WSW,34.5,41.4,N/A,,Clear,250,2012-12-05 15:56:00
9:56 AM,42.1,30.9,65,29.59,10.0,WSW,39.1,54.1,N/A,,Clear,240,2012-12-05 16:56:00
10:56 AM,45.0,16.0,31,29.63,10.0,WSW,41.4,56.4,N/A,,Clear,250,2012-12-05 17:56:00
11:56 AM,43.0,18.0,37,29.65,10.0,West,42.6,54.1,N/A,,Clear,260,2012-12-05 18:56:00
12:56 PM,42.1,14.0,32,29.69,10.0,West,34.5,48.3,N/A,,Clear,270,2012-12-05 19:56:00
1:56 PM,39.9,14.0,35,29.76,10.0,West,36.8,44.9,N/A,,Clear,270,2012-12-05 20:56:00
2:56 PM,37.9,16.0,41,29.78,10.0,West,31.1,39.1,N/A,,Clear,280,2012-12-05 21:56:00
3:56 PM,34.0,17.1,50,29.84,10.0,WNW,29.9,40.3,N/A,,Clear,290,2012-12-05 22:56:00
4:56 PM,30.0,19.9,66,29.90,10.0,WNW,27.6,34.5,N/A,,Clear,300,2012-12-05 23:56:00
5:56 PM,28.9,19.9,69,29.94,10.0,WNW,20.7,27.6,N/A,,Clear,290,2012-12-06 00:56:00
6:56 PM,26.1,18.0,71,30.00,10.0,WNW,11.5,-,N/A,,Clear,290,2012-12-06 01:56:00
7:56 PM,28.9,18.0,64,29.99,10.0,West,19.6,-,N/A,,Clear,270,2012-12-06 02:56:00
8:56 PM,28.9,16.0,58,30.01,10.0,WSW,10.4,-,N/A,,Clear,250,2012-12-06 03:56:00
9:56 PM,26.1,16.0,66,30.04,10.0,WSW,8.1,-,N/A,,Clear,240,2012-12-06 04:56:00
10:56 PM,28.0,17.1,63,30.02,10.0,WSW,12.7,-,N/A,,Clear,240,2012-12-06 05:56:00
11:56 PM,30.0,16.0,56,30.01,10.0,West,16.1,-,N/A,,Clear,260,2012-12-06 06:56:00